Weather Service Report


843 
ASUS41 KPHI 202310
RWRPHI

REGIONAL WEATHER ROUNDUP
NATIONAL WEATHER SERVICE MOUNT HOLLY NJ
700 PM EDT MON OCT 20 2014

NOTE:  "FAIR" INDICATES FEW OR NO CLOUDS BELOW 12,000 FEET WITH NO
SIGNIFICANT WEATHER AND/OR OBSTRUCTIONS TO VISIBILITY.

 * = STATION DOES NOT REPORT PRECIPITATION (E.G. RAIN, SNOW, ETC.) 
        OR FOG.

NJZ015>026-210000-
SOUTHERN NEW JERSEY
  
CITY           SKY/WX    TMP DP  RH WIND       PRES   REMARKS
POMONA         MOCLDY    59  46  62 S8        29.99S                  
RIO GRANDE*    PTCLDY    61  41  48 S12G18    30.01R                  
MILLVILLE      PTCLDY    56  45  66 SW3       29.99R                  
WRIGHTSTOWN    MOCLDY    51  42  71 S5        29.96S                  
MOUNT HOLLY    PTCLDY    51  42  71 CALM      29.97S                  
TRENTON        PTCLDY    53  38  56 CALM      29.97S                  

$$
NJZ001>014-210000-
NORTHERN NEW JERSEY
  
CITY           SKY/WX    TMP DP  RH WIND       PRES   REMARKS
SUSSEX         PTCLDY    53  40  61 CALM      29.96R                  
ANDOVER*         N/A     53  40  61 CALM      29.96S                  
MORRISTOWN     CLEAR     54  39  58 SW3       29.98R                  
NEWARK         MOCLDY    56  37  49 S8        29.97S                  
TETERBORO      CLEAR     56  38  50 S5        29.96F                  
CALDWELL       CLEAR     55  38  52 CALM      29.97S                  
SOMERVILLE     PTCLDY    51  38  60 CALM      29.96R                  
ALLAIRE*       MOCLDY    55  37  50 CALM      29.98S                  
TOMS RIVER*    MOCLDY    54  43  66 CALM      29.99S                  

$$
PAZ043-044-047-054-055-060>062-066>071-210000-
EASTERN PENNSYLVANIA
  
CITY           SKY/WX    TMP DP  RH WIND       PRES   REMARKS
PHILADELPHIA   MOCLDY    58  44  60 S5        29.98R                  
NORTH PHILA    MOCLDY    57  39  51 SE3       29.99R                  
BLUE BELL      MOCLDY    52  43  71 CALM      29.96S                  
DOYLESTOWN     MOCLDY    50  41  71 CALM      29.96S                  
QUAKERTOWN*    MOCLDY    52  39  62 CALM      29.97S                  
POTTSTOWN      CLOUDY    51  40  65 CALM      29.98R                  
LANCASTER      MOCLDY    54  44  69 SE6       29.95S                  
COATESVILLE    CLOUDY    54  45  71 CALM      29.97S                  
READING        CLOUDY    57  42  57 S5        29.95S                  
ALLENTOWN      CLOUDY    57  39  51 S6        29.96S                  
MOUNT POCONO   CLOUDY    50  38  63 SW7       29.94S                  
HAZLETON       CLOUDY    52  41  66 SE6       29.96S                  
WILKES BARRE   CLOUDY    55  38  52 VRB5      29.92S                  

$$
DEZALL-MDZ008-012-015-019-020-210000-
DELAWARE AND EASTERN MARYLAND
  
CITY           SKY/WX    TMP DP  RH WIND       PRES   REMARKS
WILMINGTON     MOCLDY    59  42  53 S6        29.98R                  
DOVER          MOCLDY    57  43  61 S8        29.97R                  
GEORGETOWN     PTCLDY    57  43  59 S6        30.00R                  
EASTON         MOCLDY    59  46  63 S6        30.01S                  
PATUXENT       MOCLDY    59  41  51 S5        29.98R                  
OCEAN CITY     CLEAR     59  46  62 SW7       30.00R                  
WALLOPS ISLAND CLEAR     58  46  64 SW6       30.00F                  
SALISBURY      PTCLDY    55  44  66 CALM      30.00R                  

$$
PAZ001-021-NYZ056-072-MDZ011-DCZ001-210000-
OTHER NEARBY LOCATIONS
  
CITY           SKY/WX    TMP DP  RH WIND       PRES   REMARKS
HARRISBURG     CLOUDY    56  48  74 CALM      29.94S                  
STATE COLLEGE  CLOUDY    54  37  54 SW6       29.90S                  
WILLIAMSPORT   CLOUDY    58  35  42 VRB6      29.90S                  
BINGHAMTON     CLOUDY    49  36  61 S6        29.89S                  
NEW YORK CITY  CLEAR     57  37  47 MISG      30.00S                  
BALTIMORE      MOCLDY    60  45  57 SE5       29.95S                  
WASHINGTON DC  MOCLDY    65  48  54 S9        29.96R                  

$$

Return to Home page


Western Regional Climate Center, wrcc@dri.edu